| time (UTC) | temp F | wind direction | speed MPH | gust MPH | rain 1hr in | rain 24hr in | rain mn in | humidity % | barometer mb |
| 20260901100912 | 67 | 321 | 4.0 | 13.0 | 0.00 | 0.00 | 0.00 | 61 | 1011.5 |
| 20260901100423 | 67 | 310 | 4.0 | 13.0 | 0.00 | 0.00 | 0.00 | 60 | 1011.4 |
| 20260901095904 | 67 | 5 | 2.0 | 12.0 | 0.00 | 0.00 | 0.00 | 59 | 1011.2 |
| 20260901095412 | 68 | 11 | 2.0 | 10.0 | 0.00 | 0.00 | 0.00 | 58 | 1011.2 |
| 20260901094900 | 68 | 324 | 3.0 | 10.0 | 0.00 | 0.00 | 0.00 | 58 | 1011.4 |
| 20260901094409 | 68 | 54 | 4.0 | 12.0 | 0.00 | 0.00 | 0.00 | 58 | 1011.4 |
| 20260901093916 | 68 | 334 | 4.0 | 12.0 | 0.00 | 0.00 | 0.00 | 58 | 1011.3 |
| 20260901092738 | 68 | 328 | 4.0 | 14.0 | 0.00 | 0.00 | 0.00 | 57 | 1011.3 |
| 20260901092219 | 68 | 312 | 5.0 | 14.0 | 0.00 | 0.00 | 0.00 | 56 | 1011.3 |
| 20260901091116 | 68 | 319 | 4.0 | 12.0 | 0.00 | 0.00 | 0.00 | 56 | 1011.3 |
| 20260901090613 | 68 | 22 | 4.0 | 12.0 | 0.00 | 0.00 | 0.00 | 56 | 1011.4 |
| 20260901090123 | 68 | 307 | 4.0 | 12.0 | 0.00 | 0.00 | 0.00 | 56 | 1011.4 |
| 20260901085604 | 68 | 312 | 4.0 | 10.0 | 0.00 | 0.00 | 0.00 | 56 | 1011.5 |
| 20260901085049 | 68 | 6 | 3.0 | 10.0 | 0.00 | 0.00 | 0.00 | 56 | 1011.5 |
| 20260901084530 | 68 | 11 | 1.0 | 9.0 | 0.00 | 0.00 | 0.00 | 55 | 1011.5 |
| 20260901084015 | 68 | 322 | 0.0 | 9.0 | 0.00 | 0.00 | 0.00 | 55 | 1011.5 |
| 20260901083509 | 68 | 339 | 1.0 | 9.0 | 0.00 | 0.00 | 0.00 | 56 | 1011.7 |
| 20260901082350 | 69 | 238 | 3.0 | 12.0 | 0.00 | 0.00 | 0.00 | 55 | 1011.9 |
| 20260901081235 | 69 | 13 | 3.0 | 12.0 | 0.00 | 0.00 | 0.00 | 55 | 1012.0 |
| 20260901080718 | 69 | 328 | 3.0 | 12.0 | 0.00 | 0.00 | 0.00 | 55 | 1012.1 |
| 20260901080217 | 69 | 347 | 3.0 | 12.0 | 0.00 | 0.00 | 0.00 | 54 | 1012.1 |
| 20260901075713 | 69 | 287 | 2.0 | 10.0 | 0.00 | 0.00 | 0.00 | 54 | 1012.3 |
| 20260901075209 | 69 | 220 | 2.0 | 10.0 | 0.00 | 0.00 | 0.00 | 54 | 1012.3 |
| 20260901074659 | 68 | 338 | 2.0 | 12.0 | 0.00 | 0.00 | 0.00 | 54 | 1012.4 |
| 20260901074158 | 68 | 43 | 2.0 | 12.0 | 0.00 | 0.00 | 0.00 | 55 | 1012.4 |
| 20260901073653 | 68 | 25 | 2.0 | 12.0 | 0.00 | 0.00 | 0.00 | 55 | 1012.5 |
| 20260901072518 | 68 | 339 | 3.0 | 9.0 | 0.00 | 0.00 | 0.00 | 55 | 1012.6 |
| 20260901072017 | 68 | 336 | 3.0 | 9.0 | 0.00 | 0.00 | 0.00 | 56 | 1012.5 |
| 20260901071521 | 68 | 318 | 2.0 | 9.0 | 0.00 | 0.00 | 0.00 | 56 | 1012.5 |
| 20260901071002 | 68 | 351 | 2.0 | 9.0 | 0.00 | 0.00 | 0.00 | 56 | 1012.4 |
| 20260901070511 | 68 | 334 | 3.0 | 9.0 | 0.00 | 0.00 | 0.00 | 56 | 1012.4 |
| 20260901070014 | 68 | 325 | 3.0 | 8.0 | 0.00 | 0.00 | 0.00 | 56 | 1012.5 |
| 20260901065517 | 68 | 354 | 3.0 | 8.0 | 0.00 | 0.00 | 0.00 | 56 | 1012.7 |
| 20260901065013 | 68 | 305 | 3.0 | 8.0 | 0.00 | 0.00 | 0.00 | 55 | 1012.7 |
| 20260901064521 | 69 | 340 | 2.0 | 9.0 | 0.00 | 0.00 | 0.00 | 55 | 1012.6 |
| 20260901062734 | 69 | 320 | 4.0 | 9.0 | 0.00 | 0.00 | 0.00 | 54 | 1012.4 |
| 20260901062236 | 69 | 38 | 4.0 | 9.0 | 0.00 | 0.00 | 0.00 | 53 | 1012.4 |
| 20260901061100 | 70 | 39 | 5.0 | 14.0 | 0.00 | 0.00 | 0.00 | 52 | 1012.3 |
| 20260901060607 | 70 | 338 | 5.0 | 14.0 | 0.00 | 0.00 | 0.00 | 52 | 1012.4 |
| 20260901055542 | 70 | 28 | 3.0 | 12.0 | 0.00 | 0.00 | 0.00 | 51 | 1012.4 |
| 20260901055027 | 70 | 341 | 3.0 | 10.0 | 0.00 | 0.00 | 0.00 | 51 | 1012.2 |
| 20260901054520 | 70 | 307 | 3.0 | 17.0 | 0.00 | 0.00 | 0.00 | 50 | 1012.2 |
| 20260901054014 | 70 | 353 | 5.0 | 17.0 | 0.00 | 0.00 | 0.00 | 50 | 1012.1 |
| 20260901053517 | 70 | 4 | 7.0 | 17.0 | 0.00 | 0.00 | 0.00 | 49 | 1012.1 |
| 20260901053002 | 70 | 348 | 6.0 | 17.0 | 0.00 | 0.00 | 0.00 | 50 | 1012.0 |
| 20260901052508 | 71 | 356 | 6.0 | 16.0 | 0.00 | 0.00 | 0.00 | 50 | 1012.0 |
| 20260901052004 | 71 | 17 | 6.0 | 16.0 | 0.00 | 0.00 | 0.00 | 50 | 1012.0 |
| 20260901051458 | 71 | 350 | 6.0 | 16.0 | 0.00 | 0.00 | 0.00 | 51 | 1011.9 |
| 20260901050938 | 71 | 286 | 6.0 | 15.0 | 0.00 | 0.00 | 0.00 | 51 | 1012.1 |
| 20260901050423 | 71 | 63 | 6.0 | 15.0 | 0.00 | 0.00 | 0.00 | 51 | 1012.0 |
| 20260901044002 | 72 | 293 | 7.0 | 16.0 | 0.00 | 0.00 | 0.00 | 51 | 1012.2 |
| 20260901043501 | 72 | 17 | 6.0 | 16.0 | 0.00 | 0.00 | 0.00 | 51 | 1012.4 |
| 20260901043010 | 72 | 292 | 5.0 | 16.0 | 0.00 | 0.00 | 0.00 | 51 | 1012.6 |
| 20260901042512 | 72 | 340 | 5.0 | 17.0 | 0.00 | 0.00 | 0.00 | 51 | 1012.8 |
| 20260901041954 | 72 | 30 | 5.0 | 17.0 | 0.00 | 0.00 | 0.00 | 51 | 1012.9 |
| 20260901041454 | 72 | 302 | 5.0 | 17.0 | 0.00 | 0.00 | 0.00 | 50 | 1013.0 |
| 20260901040311 | 72 | 22 | 5.0 | 16.0 | 0.00 | 0.00 | 0.00 | 50 | 1013.2 |
| 20260901035802 | 72 | 350 | 5.0 | 16.0 | 0.00 | 0.00 | 0.00 | 50 | 1013.3 |
| 20260901035254 | 72 | 345 | 5.0 | 15.0 | 0.00 | 0.00 | 0.00 | 50 | 1013.4 |
| 20260901034739 | 72 | 298 | 6.0 | 15.0 | 0.00 | 0.00 | 0.00 | 50 | 1013.6 |
| 20260901033611 | 72 | 295 | 5.0 | 15.0 | 0.00 | 0.00 | 0.00 | 50 | 1014.0 |
| 20260901033104 | 72 | 347 | 4.0 | 12.0 | 0.00 | 0.00 | 0.00 | 49 | 1014.1 |
| 20260901032556 | 72 | 347 | 4.0 | 19.0 | 0.00 | 0.00 | 0.00 | 49 | 1014.2 |
| 20260901032043 | 72 | 326 | 5.0 | 19.0 | 0.00 | 0.00 | 0.00 | 50 | 1014.3 |
| 20260901031549 | 72 | 261 | 6.0 | 19.0 | 0.00 | 0.00 | 0.00 | 49 | 1014.4 |
| 20260901031040 | 72 | 264 | 6.0 | 19.0 | 0.00 | 0.00 | 0.00 | 48 | 1014.5 |
| 20260901030528 | 72 | 336 | 6.0 | 17.0 | 0.00 | 0.00 | 0.00 | 48 | 1014.7 |
| 20260901030018 | 72 | 10 | 5.0 | 15.0 | 0.00 | 0.00 | 0.00 | 48 | 1014.7 |
| 20260901025505 | 72 | 7 | 5.0 | 12.0 | 0.00 | 0.00 | 0.00 | 49 | 1014.7 |
| 20260901024948 | 72 | 317 | 5.0 | 24.0 | 0.00 | 0.00 | 0.00 | 49 | 1014.8 |
| 20260901024441 | 72 | 345 | 5.0 | 24.0 | 0.00 | 0.00 | 0.00 | 48 | 1015.0 |
| 20260901023926 | 72 | 322 | 6.0 | 24.0 | 0.00 | 0.00 | 0.00 | 48 | 1015.1 |
| 20260901022808 | 72 | 329 | 7.0 | 21.0 | 0.00 | 0.00 | 0.00 | 49 | 1015.3 |
| 20260901022305 | 72 | 243 | 6.0 | 21.0 | 0.00 | 0.00 | 0.00 | 49 | 1015.4 |
| 20260901021808 | 72 | 318 | 6.0 | 21.0 | 0.00 | 0.00 | 0.00 | 50 | 1015.6 |
| 20260901021258 | 72 | 13 | 5.0 | 15.0 | 0.00 | 0.00 | 0.00 | 51 | 1015.6 |
| 20260901020740 | 71 | 354 | 4.0 | 11.0 | 0.00 | 0.00 | 0.00 | 52 | 1015.6 |
| 20260901020223 | 71 | 326 | 5.0 | 18.0 | 0.00 | 0.00 | 0.00 | 54 | 1015.8 |
| 20260901015037 | 70 | 320 | 6.0 | 18.0 | 0.00 | 0.00 | 0.00 | 55 | 1015.8 |
| 20260901014538 | 70 | 336 | 7.0 | 17.0 | 0.00 | 0.00 | 0.00 | 55 | 1015.9 |
| 20260901012156 | 68 | 322 | 8.0 | 19.0 | 0.00 | 0.00 | 0.00 | 58 | 1016.2 |
| 20260901011657 | 67 | 5 | 8.0 | 19.0 | 0.00 | 0.00 | 0.00 | 58 | 1016.4 |
| 20260901011202 | 67 | 37 | 7.0 | 17.0 | 0.00 | 0.00 | 0.00 | 59 | 1016.5 |
| 20260901010037 | 67 | 315 | 7.0 | 19.0 | 0.00 | 0.00 | 0.00 | 61 | 1016.5 |
| 20260901003653 | 65 | 30 | 9.0 | 26.0 | 0.00 | 0.00 | 0.00 | 63 | 1016.9 |
| 20260901003203 | 65 | 28 | 9.0 | 26.0 | 0.00 | 0.00 | 0.00 | 63 | 1017.0 |
| 20260901002646 | 65 | 6 | 10.0 | 26.0 | 0.00 | 0.00 | 0.00 | 63 | 1017.1 |
| 20260901001517 | 65 | 25 | 8.0 | 24.0 | 0.00 | 0.00 | 0.00 | 65 | 1017.6 |
| 20260901001010 | 65 | 355 | 9.0 | 24.0 | 0.00 | 0.00 | 0.00 | 64 | 1017.6 |
| 20260901000507 | 64 | 6 | 8.0 | 25.0 | 0.00 | 0.00 | 0.00 | 65 | 1017.6 |
| 20260901000017 | 64 | 302 | 7.0 | 25.0 | 0.00 | 0.00 | 0.00 | 66 | 1017.6 |
| 20260831235514 | 64 | 23 | 7.0 | 25.0 | 0.00 | 0.00 | 0.00 | 67 | 1017.7 |
| 20260831234401 | 63 | 298 | 8.0 | 20.0 | 0.00 | 0.00 | 0.00 | 69 | 1017.9 |
| 20260831233858 | 63 | 333 | 7.0 | 20.0 | 0.00 | 0.00 | 0.00 | 69 | 1017.9 |
| 20260831233340 | 63 | 75 | 6.0 | 20.0 | 0.00 | 0.00 | 0.00 | 70 | 1018.0 |
| 20260831232843 | 63 | 22 | 7.0 | 21.0 | 0.00 | 0.00 | 0.00 | 71 | 1018.2 |
| 20260831232345 | 62 | 319 | 8.0 | 21.0 | 0.00 | 0.00 | 0.00 | 72 | 1018.5 |
| 20260831231838 | 62 | 318 | 7.0 | 21.0 | 0.00 | 0.00 | 0.00 | 72 | 1018.6 |
| 20260831231324 | 62 | 6 | 6.0 | 21.0 | 0.00 | 0.00 | 0.00 | 72 | 1018.8 |
| 20260831230814 | 62 | 5 | 5.0 | 19.0 | 0.00 | 0.00 | 0.00 | 73 | 1019.0 |
| 20260831230309 | 62 | 20 | 5.0 | 19.0 | 0.00 | 0.00 | 0.00 | 74 | 1019.1 |
| 20260831225752 | 61 | 336 | 4.0 | 19.0 | 0.00 | 0.00 | 0.00 | 74 | 1019.4 |
| 20260831225244 | 61 | 63 | 4.0 | 19.0 | 0.00 | 0.00 | 0.00 | 75 | 1019.4 |
| 20260831224100 | 60 | 324 | 6.0 | 18.0 | 0.00 | 0.00 | 0.00 | 76 | 1019.6 |
| 20260831223603 | 60 | 23 | 5.0 | 16.0 | 0.00 | 0.00 | 0.00 | 77 | 1019.7 |
| 20260831223106 | 60 | 309 | 5.0 | 15.0 | 0.00 | 0.00 | 0.00 | 78 | 1019.8 |
| 20260831222552 | 59 | 325 | 4.0 | 15.0 | 0.00 | 0.00 | 0.00 | 79 | 1019.9 |
| 20260831222047 | 59 | 347 | 4.0 | 15.0 | 0.00 | 0.00 | 0.00 | 79 | 1019.9 |
| 20260831221539 | 59 | 353 | 4.0 | 13.0 | 0.00 | 0.00 | 0.00 | 80 | 1019.9 |
| 20260831221023 | 58 | 357 | 5.0 | 12.0 | 0.00 | 0.00 | 0.00 | 81 | 1019.9 |
| 20260831220521 | 58 | 336 | 4.0 | 12.0 | 0.00 | 0.00 | 0.00 | 82 | 1020.2 |
| 20260831220007 | 58 | 333 | 3.0 | 10.0 | 0.00 | 0.00 | 0.00 | 83 | 1020.1 |
| 20260831214855 | 57 | 350 | 3.0 | 10.0 | 0.00 | 0.00 | 0.00 | 84 | 1020.1 |
| 20260831213725 | 57 | 333 | 4.0 | 16.0 | 0.00 | 0.00 | 0.00 | 85 | 1020.1 |
| 20260831213227 | 56 | 354 | 5.0 | 16.0 | 0.00 | 0.00 | 0.00 | 85 | 1020.1 |
| 20260831212722 | 56 | 343 | 4.0 | 16.0 | 0.00 | 0.00 | 0.00 | 86 | 1020.0 |
| 20260831212221 | 56 | 305 | 4.0 | 14.0 | 0.00 | 0.00 | 0.00 | 86 | 1020.1 |
| 20260831211728 | 56 | 300 | 4.0 | 14.0 | 0.00 | 0.00 | 0.00 | 86 | 1020.0 |
| 20260831211218 | 56 | 21 | 3.0 | 10.0 | 0.00 | 0.00 | 0.00 | 86 | 1020.0 |
| 20260831210659 | 55 | 344 | 3.0 | 11.0 | 0.00 | 0.00 | 0.00 | 86 | 1019.9 |
| 20260831210208 | 56 | 314 | 3.0 | 11.0 | 0.00 | 0.00 | 0.00 | 86 | 1019.9 |
| 20260831205652 | 55 | 37 | 3.0 | 11.0 | 0.00 | 0.00 | 0.00 | 87 | 1020.1 |
| 20260831205157 | 55 | 317 | 3.0 | 11.0 | 0.00 | 0.00 | 0.00 | 86 | 1020.1 |
| 20260831204640 | 55 | 305 | 3.0 | 9.0 | 0.00 | 0.00 | 0.00 | 86 | 1019.9 |
| 20260831204141 | 55 | 334 | 3.0 | 8.0 | 0.00 | 0.00 | 0.00 | 86 | 1019.8 |
| 20260831203630 | 56 | 336 | 3.0 | 10.0 | 0.00 | 0.00 | 0.00 | 86 | 1020.0 |
| 20260831202502 | 56 | 6 | 3.0 | 12.0 | 0.00 | 0.00 | 0.00 | 86 | 1020.1 |
| 20260831202004 | 56 | 332 | 3.0 | 12.0 | 0.00 | 0.00 | 0.00 | 86 | 1020.1 |
| 20260831201458 | 56 | 324 | 3.0 | 16.0 | 0.00 | 0.00 | 0.00 | 85 | 1020.2 |
| 20260831200958 | 56 | 319 | 3.0 | 16.0 | 0.00 | 0.00 | 0.00 | 85 | 1020.3 |
| 20260831200505 | 56 | 279 | 4.0 | 16.0 | 0.00 | 0.00 | 0.00 | 85 | 1020.3 |
| 20260831195956 | 56 | 36 | 4.0 | 16.0 | 0.00 | 0.00 | 0.00 | 85 | 1020.2 |
| 20260831195442 | 56 | 315 | 4.0 | 12.0 | 0.00 | 0.00 | 0.00 | 85 | 1020.1 |
| 20260831193635 | 57 | 21 | 3.0 | 13.0 | 0.00 | 0.00 | 0.00 | 86 | 1020.1 |
| 20260831193116 | 57 | 319 | 4.0 | 13.0 | 0.00 | 0.00 | 0.00 | 86 | 1020.2 |
| 20260831192611 | 57 | 333 | 3.0 | 13.0 | 0.00 | 0.00 | 0.00 | 87 | 1020.1 |
| 20260831192057 | 56 | 314 | 3.0 | 12.0 | 0.00 | 0.00 | 0.00 | 87 | 1020.0 |
| 20260831191547 | 56 | 350 | 3.0 | 12.0 | 0.00 | 0.00 | 0.00 | 88 | 1019.9 |
| 20260831191056 | 56 | 313 | 2.0 | 12.0 | 0.00 | 0.00 | 0.00 | 88 | 1020.0 |
| 20260831190602 | 56 | 47 | 2.0 | 12.0 | 0.00 | 0.00 | 0.00 | 89 | 1020.1 |
| 20260831190047 | 56 | 6 | 2.0 | 12.0 | 0.00 | 0.00 | 0.00 | 90 | 1020.3 |
| 20260831185554 | 56 | 2 | 2.0 | 12.0 | 0.00 | 0.00 | 0.00 | 90 | 1020.4 |
| 20260831184432 | 55 | 35 | 2.0 | 12.0 | 0.00 | 0.00 | 0.00 | 91 | 1020.4 |
| 20260831183936 | 55 | 312 | 1.0 | 7.0 | 0.00 | 0.00 | 0.00 | 91 | 1020.5 |
| 20260831183439 | 55 | 312 | 1.0 | 7.0 | 0.00 | 0.00 | 0.00 | 91 | 1020.5 |
| 20260831182946 | 54 | 345 | 0.0 | 5.0 | 0.00 | 0.00 | 0.00 | 91 | 1020.6 |
| 20260831182427 | 54 | 338 | 0.0 | 5.0 | 0.00 | 0.00 | 0.00 | 91 | 1020.7 |
| 20260831181308 | 54 | 79 | 0.0 | 5.0 | 0.00 | 0.00 | 0.00 | 91 | 1020.8 |
| 20260831180808 | 54 | 309 | 0.0 | 5.0 | 0.00 | 0.00 | 0.00 | 91 | 1020.9 |
| 20260831180316 | 54 | 11 | 0.0 | 5.0 | 0.00 | 0.00 | 0.00 | 91 | 1020.9 |
| 20260831175815 | 53 | 321 | 0.0 | 1.0 | 0.00 | 0.00 | 0.00 | 91 | 1021.0 |
| 20260831175256 | 53 | 37 | 0.0 | 3.0 | 0.00 | 0.00 | 0.00 | 91 | 1021.1 |
| 20260831174142 | 53 | 31 | 0.0 | 3.0 | 0.00 | 0.00 | 0.00 | 91 | 1021.1 |
| 20260831173624 | 53 | 14 | 0.0 | 3.0 | 0.00 | 0.00 | 0.00 | 91 | 1021.1 |
| 20260831173127 | 53 | 331 | 0.0 | 3.0 | 0.00 | 0.00 | 0.00 | 91 | 1021.2 |
| 20260831172608 | 53 | 60 | 0.0 | 3.0 | 0.00 | 0.00 | 0.00 | 91 | 1021.3 |
| 20260831172105 | 53 | 11 | 0.0 | 3.0 | 0.00 | 0.00 | 0.00 | 91 | 1021.4 |
| 20260831171554 | 53 | 36 | 0.0 | 3.0 | 0.00 | 0.00 | 0.00 | 91 | 1021.4 |
| 20260831171102 | 52 | 70 | 0.0 | 3.0 | 0.00 | 0.00 | 0.00 | 91 | 1021.6 |
| 20260831165305 | 52 | 54 | 0.0 | 1.0 | 0.00 | 0.00 | 0.00 | 91 | 1021.8 |
| 20260831164748 | 52 | 321 | 0.0 | 0.0 | 0.00 | 0.00 | 0.00 | 90 | 1021.9 |
| 20260831162925 | 52 | 42 | 0.0 | 3.0 | 0.00 | 0.00 | 0.00 | 91 | 1022.2 |
| 20260831162416 | 52 | 49 | 0.0 | 2.0 | 0.00 | 0.00 | 0.00 | 91 | 1022.2 |
| 20260831161925 | 51 | 44 | 0.0 | 2.0 | 0.00 | 0.00 | 0.00 | 90 | 1022.3 |
| 20260831161415 | 51 | 11 | 0.0 | 2.0 | 0.00 | 0.00 | 0.00 | 90 | 1022.5 |
| 20260831160905 | 51 | 51 | 0.0 | 0.0 | 0.00 | 0.00 | 0.00 | 90 | 1022.5 |
| 20260831160400 | 51 | 47 | 0.0 | 0.0 | 0.00 | 0.00 | 0.00 | 90 | 1022.5 |
| 20260831155337 | 50 | 10 | 0.0 | 0.0 | 0.00 | 0.00 | 0.00 | 89 | 1022.6 |
| 20260831154834 | 50 | 10 | 0.0 | 0.0 | 0.00 | 0.00 | 0.00 | 89 | 1022.6 |
| 20260831154331 | 51 | 10 | 0.0 | 0.0 | 0.00 | 0.00 | 0.00 | 89 | 1022.8 |
| 20260831153836 | 51 | 10 | 0.0 | 0.0 | 0.00 | 0.00 | 0.00 | 89 | 1022.8 |
| 20260831153321 | 51 | 11 | 0.0 | 0.0 | 0.00 | 0.00 | 0.00 | 89 | 1022.9 |
| 20260831152801 | 51 | 2 | 0.0 | 0.0 | 0.00 | 0.00 | 0.00 | 89 | 1022.9 |
| 20260831151645 | 51 | 355 | 0.0 | 2.0 | 0.00 | 0.00 | 0.00 | 89 | 1023.0 |
| 20260831151134 | 51 | 13 | 0.0 | 2.0 | 0.00 | 0.00 | 0.00 | 89 | 1022.9 |
| 20260831150622 | 51 | 352 | 0.0 | 1.0 | 0.00 | 0.00 | 0.00 | 89 | 1023.0 |
| 20260831150107 | 51 | 37 | 0.0 | 0.0 | 0.00 | 0.00 | 0.00 | 89 | 1023.0 |
| 20260831145548 | 51 | 32 | 0.0 | 0.0 | 0.00 | 0.00 | 0.00 | 89 | 1023.0 |
| 20260831145054 | 51 | 37 | 0.0 | 1.0 | 0.00 | 0.00 | 0.00 | 89 | 1023.1 |
| 20260831144555 | 51 | 7 | 0.0 | 1.0 | 0.00 | 0.00 | 0.00 | 89 | 1023.2 |
| 20260831144045 | 50 | 32 | 0.0 | 0.0 | 0.00 | 0.00 | 0.00 | 89 | 1023.4 |
| 20260831143511 | 50 | 32 | 0.0 | 0.0 | 0.00 | 0.00 | 0.00 | 89 | 1023.4 |
| 20260831143008 | 50 | 35 | 0.0 | 0.0 | 0.00 | 0.00 | 0.00 | 88 | 1023.5 |
| 20260831142456 | 50 | 35 | 0.0 | 0.0 | 0.00 | 0.00 | 0.00 | 88 | 1023.5 |
| 20260831141945 | 51 | 35 | 0.0 | 0.0 | 0.00 | 0.00 | 0.00 | 89 | 1023.7 |
| 20260831141434 | 51 | 35 | 0.0 | 0.0 | 0.00 | 0.00 | 0.00 | 89 | 1023.7 |
| 20260831140926 | 51 | 32 | 0.0 | 0.0 | 0.00 | 0.00 | 0.00 | 89 | 1023.8 |
| 20260831140431 | 51 | 352 | 0.0 | 1.0 | 0.00 | 0.00 | 0.00 | 89 | 1023.9 |
| 20260831135248 | 51 | 31 | 0.0 | 1.0 | 0.00 | 0.00 | 0.00 | 89 | 1024.1 |
| 20260831134738 | 51 | 42 | 0.0 | 0.0 | 0.00 | 0.00 | 0.00 | 90 | 1024.2 |
| 20260831134230 | 51 | 19 | 0.0 | 0.0 | 0.00 | 0.00 | 0.00 | 89 | 1024.3 |
| 20260831133725 | 51 | 37 | 0.0 | 2.0 | 0.00 | 0.00 | 0.00 | 89 | 1024.4 |
| 20260831133227 | 51 | 32 | 0.0 | 2.0 | 0.00 | 0.00 | 0.00 | 89 | 1024.4 |
| 20260831132722 | 51 | 40 | 0.0 | 2.0 | 0.00 | 0.00 | 0.00 | 90 | 1024.5 |
| 20260831132209 | 51 | 47 | 0.0 | 1.0 | 0.00 | 0.00 | 0.00 | 90 | 1024.6 |
| 20260831131716 | 51 | 37 | 0.0 | 2.0 | 0.00 | 0.00 | 0.00 | 90 | 1024.7 |
| 20260831131212 | 51 | 120 | 0.0 | 2.0 | 0.00 | 0.00 | 0.00 | 90 | 1024.8 |
| 20260831130710 | 50 | 25 | 0.0 | 2.0 | 0.00 | 0.00 | 0.00 | 90 | 1024.8 |
| 20260831130205 | 50 | 12 | 0.0 | 2.0 | 0.00 | 0.00 | 0.00 | 90 | 1024.9 |
| 20260831125038 | 50 | 39 | 0.0 | 1.0 | 0.00 | 0.00 | 0.00 | 90 | 1025.0 |
| 20260831124548 | 49 | 41 | 0.0 | 0.0 | 0.00 | 0.00 | 0.00 | 90 | 1025.1 |
| 20260831124045 | 49 | 34 | 0.0 | 0.0 | 0.00 | 0.00 | 0.00 | 89 | 1025.3 |
| 20260831123527 | 49 | 34 | 0.0 | 0.0 | 0.00 | 0.00 | 0.00 | 89 | 1025.3 |
| 20260831122348 | 49 | 34 | 0.0 | 0.0 | 0.00 | 0.00 | 0.00 | 89 | 1025.3 |
| 20260831121831 | 49 | 40 | 0.0 | 0.0 | 0.00 | 0.00 | 0.00 | 89 | 1025.3 |
| 20260831120706 | 49 | 36 | 0.0 | 0.0 | 0.00 | 0.00 | 0.00 | 89 | 1025.3 |
| 20260831120156 | 49 | 34 | 0.0 | 0.0 | 0.00 | 0.00 | 0.00 | 89 | 1025.3 |
| 20260831113817 | 49 | 145 | 0.0 | 0.0 | 0.00 | 0.00 | 0.00 | 88 | 1025.5 |
| 20260831113320 | 49 | 145 | 0.0 | 0.0 | 0.00 | 0.00 | 0.00 | 88 | 1025.5 |
| 20260831112206 | 49 | 145 | 0.0 | 0.0 | 0.00 | 0.00 | 0.00 | 88 | 1025.6 |
| 20260831111657 | 49 | 145 | 0.0 | 0.0 | 0.00 | 0.00 | 0.00 | 88 | 1025.6 |
| 20260831111159 | 49 | 145 | 0.0 | 0.0 | 0.00 | 0.00 | 0.00 | 88 | 1025.5 |
| 20260831110707 | 49 | 145 | 0.0 | 0.0 | 0.00 | 0.00 | 0.00 | 88 | 1025.5 |
| 20260831110202 | 49 | 145 | 0.0 | 0.0 | 0.00 | 0.00 | 0.00 | 87 | 1025.6 |
| 20260831105711 | 49 | 145 | 0.0 | 0.0 | 0.00 | 0.00 | 0.00 | 87 | 1025.7 |
| 20260831105211 | 49 | 145 | 0.0 | 0.0 | 0.00 | 0.00 | 0.00 | 87 | 1025.7 |
| 20260831104655 | 50 | 145 | 0.0 | 0.0 | 0.00 | 0.00 | 0.00 | 87 | 1025.7 |
| 20260831104138 | 50 | 145 | 0.0 | 0.0 | 0.00 | 0.00 | 0.00 | 87 | 1025.8 |
| 20260831102955 | 50 | 145 | 0.0 | 0.0 | 0.00 | 0.00 | 0.00 | 86 | 1025.8 |
| 20260831101806 | 50 | 145 | 0.0 | 0.0 | 0.00 | 0.00 | 0.00 | 86 | 1025.9 |